Flag for Canada Weather past 2 weeks in Prince Albert, Saskatchewan, Canada

Now
54 °F

Light rain. More clouds than sun.


Feels Like: 53 °F
Forecast: 44 / 54 °F
Wind: 5 mph from South

Location: Prince Albert

Current Time: Sep 30, 2014 at 6:52:39 PM

Latest Report: Sep 30, 2014 at 6:00 PM


Visibility: 15 mi

Pressure: 29.59 "Hg

Humidity: 94%

Dew point: 52 °F

Location of Prince AlbertLocation

Historic Weather in Prince Albert — Graph

°F

Prince Albert temperature yesterday

Maximum temperature yesterday: 57 °F (at 3:00 PM)
Minimum temperature yesterday: 30 °F (at 4:00 AM)
Average temperature yesterday: 45 °F

Past Weeks' High & Low Weather Summary

 TemperatureHumidityPressure
High84 °F (Sep 23, 4:00 PM)100% (Sep 16, 1:00 AM)30.55 "Hg (Sep 16, 1:00 AM)
Low30 °F (Sep 29, 4:00 AM)30% (Sep 22, 2:00 PM)29.49 "Hg (Sep 18, 3:00 PM)
Average54 °F75%29.92 "Hg
* Reported Sep 15 5:00 PM — Sep 30 5:00 PM, Prince Albert, Weather by CustomWeather, © 2014

Note: Actual official high and low records may vary slightly from our data, if they occured in-between our weather recording intervals... More about our weather records

Advertising

Prince Albert weather history for previous 24 hours

 ConditionsComfort  
Time TempWeatherWind HumidityBarometerVisibility
5:00 PM
Sep 30
55 °FOvercast.5 mph88%29.59 "Hg15 mi
4:00 PM57 °FOvercast.5 mph77%29.59 "Hg15 mi
3:00 PM57 °FOvercast.8 mph77%29.58 "Hg15 mi
2:00 PM55 °FOvercast.7 mph82%29.59 "Hg15 mi
1:00 PM55 °FOvercast.10 mph77%29.59 "Hg15 mi
12:00 PM55 °FOvercast.9 mph82%29.59 "Hg12 mi
11:00 AM54 °FOvercast.10 mph88%29.60 "Hg12 mi
9:00 AM52 °FSprinkles. Overcast.9 mph88%29.64 "Hg10 mi
8:00 AM52 °FOvercast.8 mph82%29.65 "Hg15 mi
7:00 AM52 °FMostly cloudy.10 mph82%29.66 "Hg15 mi
6:00 AM52 °FMostly cloudy.9 mph82%29.67 "Hg15 mi
5:00 AM52 °FOvercast.15 mph82%29.70 "Hg15 mi
4:00 AM52 °FMostly cloudy.9 mph77%29.72 "Hg15 mi
3:00 AM52 °FMostly cloudy.12 mph77%29.75 "Hg15 mi
2:00 AM52 °FOvercast.9 mph77%29.76 "Hg15 mi
1:00 AM52 °FOvercast.12 mph77%29.77 "Hg15 mi
12:00 AM52 °FOvercast.12 mph72%29.79 "Hg15 mi
11:00 PM
Sep 29
52 °FOvercast.12 mph72%29.81 "Hg15 mi
10:00 PM52 °FOvercast.10 mph67%29.83 "Hg15 mi
9:00 PM50 °FPassing clouds.8 mph71%29.85 "Hg15 mi
8:00 PM50 °FPassing clouds.8 mph71%29.88 "Hg15 mi
7:00 PM54 °FPassing clouds.13 mph67%29.90 "Hg15 mi
6:00 PM55 °FPassing clouds.10 mph59%29.91 "Hg15 mi
Weather by CustomWeather, © 2014

See weather overviewHow to use our weather pages